Weather History for Gwinn, MI

Change the Weather History Date:

Sunday, April 21, 2013

  Actual Average (KESC) Record (KESC)
Temperature  
Mean Temperature 27 °F -  
Max Temperature 39 °F 48 °F 68 °F (1961)
Min Temperature 15 °F 33 °F 20 °F (1982)
Degree Days  
Heating Degree Days 38    
Moisture  
Dew Point 19 °F    
Average Humidity 74    
Maximum Humidity 86    
Minimum Humidity 45    
Precipitation  
Precipitation 0.00 in - - ()
Sea Level Pressure  
Sea Level Pressure 30.37 in    
Wind  
Wind Speed 7 mph (South)    
Max Wind Speed 26 mph    
Max Gust Speed 34 mph    
Visibility 10 miles    
Events      
Averages and records for this station are not official NWS values.
T = Trace of Precipitation, MM = Missing Value Source: NWS Daily Summary

Daily Weather History Graph

Daily Weather History Graph

Search for Another Location

Airport:

Trip Planner

Search our weather history database for the weather conditions in past years. The results will help you decide how hot, cold, wet, or windy it might be!

Date:

Astronomy

Apr. 21, 2013 Rise Set
Actual Time 6:51 AM EDT 8:45 PM EDT
Civil Twilight 6:19 AM EDT 9:17 PM EDT
Nautical Twilight 5:40 AM EDT 9:57 PM EDT
Astronomical Twilight 4:56 AM EDT 10:41 PM EDT
Moon 4:16 PM EDT (4/21) 4:29 AM EDT (4/21)
Length of Visible Light 14h 58m
Length of Day
13h 53m
Waxing Gibbous, 79% of the Moon is Illuminated
Apr 21
Waxing Gibbous
Apr 25
Full
May 2
Last Quarter
May 9
New
May 18
First Quarter

Hourly Weather History & Observations

Time (EDT) Temp. Windchill Dew Point Humidity Pressure Visibility Wind Dir Wind Speed Gust Speed Precip Events Conditions
12:17 AM 21.2 °F - 14.5 °F 75% 30.39 in 10.0 mi Calm Calm - N/A   Clear
12:37 AM 19.4 °F - 13.1 °F 76% 30.39 in 10.0 mi Calm Calm - N/A   Clear
12:57 AM 19.4 °F - 13.3 °F 77% 30.40 in 10.0 mi Calm Calm - N/A   Clear
1:17 AM 18.1 °F - 12.6 °F 79% 30.40 in 10.0 mi Calm Calm - N/A   Clear
1:36 AM 15.6 °F - 11.1 °F 82% 30.40 in 10.0 mi Calm Calm - N/A   Clear
1:57 AM 17.2 °F - 12.4 °F 81% 30.40 in 10.0 mi Calm Calm - N/A   Clear
2:17 AM 16.5 °F - 11.8 °F 82% 30.40 in 10.0 mi Calm Calm - N/A   Clear
2:36 AM 15.3 °F - 10.8 °F 82% 30.41 in 10.0 mi Calm Calm - N/A   Clear
2:57 AM 15.4 °F - 11.5 °F 84% 30.41 in 10.0 mi Calm Calm - N/A   Clear
3:16 AM 15.8 °F 7.2 °F 11.8 °F 84% 30.41 in 10.0 mi South 5.8 mph - N/A   Clear
3:37 AM 18.1 °F 10.0 °F 12.9 °F 80% 30.41 in 10.0 mi South 5.8 mph - N/A   Clear
3:57 AM 17.6 °F 9.3 °F 12.7 °F 81% 30.41 in 10.0 mi SSE 5.8 mph - N/A   Clear
4:16 AM 17.4 °F 10.4 °F 12.6 °F 81% 30.42 in 10.0 mi South 4.6 mph - N/A   Clear
4:37 AM 17.8 °F 9.6 °F 12.9 °F 81% 30.42 in 10.0 mi South 5.8 mph - N/A   Clear
4:57 AM 18.5 °F 10.4 °F 13.3 °F 80% 30.42 in 10.0 mi South 5.8 mph - N/A   Clear
5:16 AM 18.5 °F 10.4 °F 13.5 °F 81% 30.42 in 10.0 mi South 5.8 mph - N/A   Clear
5:37 AM 18.5 °F 10.4 °F 13.8 °F 82% 30.42 in 10.0 mi SSE 5.8 mph - N/A   Clear
5:57 AM 19.0 °F 11.1 °F 14.5 °F 83% 30.43 in 10.0 mi South 5.8 mph - N/A   Clear
6:50 AM 19.4 °F 10.4 °F 15.8 °F 86% 30.44 in 10.0 mi South 6.9 mph - N/A   Mostly Cloudy
7:50 AM 21.2 °F 10.1 °F 17.6 °F 86% 30.48 in 10.0 mi South 10.4 mph - N/A   Scattered Clouds
8:04 AM 23.0 °F 11.7 °F 19.4 °F 86% 30.46 in 10.0 mi South 11.5 mph - N/A   Mostly Cloudy
8:50 AM 26.6 °F 15.7 °F 21.2 °F 80% 30.47 in 10.0 mi South 12.7 mph - N/A   Mostly Cloudy
9:50 AM 30.2 °F 19.3 °F 24.8 °F 80% 30.46 in 10.0 mi South 15.0 mph - N/A   Mostly Cloudy
10:50 AM 30.2 °F 19.3 °F 24.8 °F 80% 30.45 in 10.0 mi South 15.0 mph 25.3 mph N/A   Mostly Cloudy
11:50 AM 35.6 °F 25.2 °F 23.0 °F 60% 30.44 in 10.0 mi South 18.4 mph - N/A   Mostly Cloudy
12:50 PM 37.4 °F 27.5 °F 23.0 °F 56% 30.42 in 10.0 mi South 18.4 mph 24.2 mph N/A   Mostly Cloudy
1:50 PM 39.2 °F 31.6 °F 23.0 °F 52% 30.40 in 10.0 mi South 12.7 mph 21.9 mph N/A   Scattered Clouds
2:50 PM 39.2 °F 28.7 °F 21.2 °F 49% 30.38 in 10.0 mi South 23.0 mph 28.8 mph N/A   Mostly Cloudy
3:50 PM 39.2 °F 28.7 °F 23.0 °F 52% 30.35 in 10.0 mi South 23.0 mph 29.9 mph N/A   Clear
4:50 PM 39.2 °F 28.0 °F 19.4 °F 45% 30.32 in 10.0 mi South 26.5 mph 34.5 mph N/A   Overcast
5:50 PM 35.6 °F 23.4 °F 17.6 °F 48% 30.31 in 10.0 mi South 25.3 mph 32.2 mph N/A   Overcast
6:50 PM 35.6 °F 25.5 °F 17.6 °F 48% 30.29 in 10.0 mi South 17.3 mph 32.2 mph N/A   Overcast
7:50 PM 35.6 °F 24.2 °F 17.6 °F 48% 30.28 in 10.0 mi South 21.9 mph 33.4 mph N/A   Overcast
8:50 PM 33.8 °F 22.8 °F 24.8 °F 70% 30.26 in 10.0 mi South 18.4 mph 32.2 mph N/A   Overcast
9:50 PM 33.8 °F 22.2 °F 26.6 °F 75% 30.24 in 10.0 mi South 20.7 mph 27.6 mph N/A   Overcast
10:17 PM 34.0 °F 23.0 °F 27.3 °F 77% 30.24 in 10.0 mi South 18.4 mph 24.2 mph N/A   Mostly Cloudy
10:36 PM 34.3 °F 23.5 °F 27.5 °F 76% 30.24 in 10.0 mi South 18.4 mph 25.3 mph N/A   Mostly Cloudy
10:57 PM 34.3 °F 23.5 °F 28.2 °F 78% 30.23 in 10.0 mi South 18.4 mph 25.3 mph N/A   Mostly Cloudy
11:17 PM 34.2 °F 23.0 °F 28.8 °F 81% 30.23 in 10.0 mi South 19.6 mph 26.5 mph N/A   Mostly Cloudy
11:36 PM 34.0 °F 22.7 °F 29.1 °F 82% 30.23 in 10.0 mi South 19.6 mph 25.3 mph N/A   Scattered Clouds
11:57 PM 34.2 °F 24.0 °F 29.3 °F 82% 30.22 in 10.0 mi South 16.1 mph - N/A   Scattered Clouds